Location: Diguira
(13.1838°N, 4.9109°W)
Time: 18:20:53
(UTC+00:00)

SWARM A - Visible Passes

Search period start: 16 January 2021 00:00
Search period end: 26 January 2021 00:00
Orbit: 429 x 432 km, 87.4° (Epoch: 16 January)

Date Brightness Start Highest point End Pass type
(mag) Time Alt. Az. Time Alt. Az. Time Alt. Az.
18 Jan 7.4 20:17:15 10° SSW 20:17:20 11° SSW 20:17:20 11° SSW visible
19 Jan 6.1 19:35:58 10° SSE 19:37:06 19° SSE 19:37:06 19° SSE visible
20 Jan 7.6 20:29:38 10° WSW 20:30:14 12° WSW 20:30:14 12° WSW visible
21 Jan 4.7 19:46:59 10° S 19:50:07 58° WSW 19:50:07 58° WSW visible
22 Jan 5.2 19:06:23 10° SSE 19:09:12 27° E 19:10:06 23° ENE visible
23 Jan 6.7 19:58:39 10° SW 20:01:19 23° W 20:03:30 13° NW visible
24 Jan 4.0 19:16:57 10° S 19:20:14 72° E 19:23:32 10° N visible
25 Jan 5.9 18:37:10 10° SE 18:39:14 16° E 18:41:18 10° NE visible
